Flag for U.S.A. Weather past 2 weeks in Lancaster, California, U.S.A.

Now
74 °F

Clear.


Feels Like: 77 °F
Forecast: 64 / 98 °F
Wind: 13 mph from Southwest

Location: Lancaster / Fox Field

Current Time: Jul 27, 2015 at 11:17:02 PM

Latest Report: Jul 27, 2015 at 9:56 PM


Visibility: 10 mi

Pressure: 29.86 "Hg (27.49 "Hg at 718m altitude)

Humidity: 41%

Dew point: 49 °F

Location of LancasterLocation

Historic Weather in Lancaster — Graph

°F

Lancaster temperature yesterday

Maximum temperature yesterday: 91 °F (at 2:56 PM)
Minimum temperature yesterday: 69 °F (at 5:56 AM)
Average temperature yesterday: 79 °F

Past Weeks' High & Low Weather Summary

 TemperatureHumidityPressure
High97 °F (Jul 17, 2:56 PM)96% (Jul 20, 1:56 AM)30.13 "Hg (Jul 20, 1:56 AM)
Low63 °F (Jul 13, 5:56 AM)7% (Jul 17, 6:56 PM)29.77 "Hg (Jul 17, 4:56 PM)
Average78 °F42%29.91 "Hg
* Reported Jul 12 9:56 PM — Jul 27 9:56 PM, Lancaster, Weather by CustomWeather, © 2015

Note: Actual official high and low records may vary slightly from our data, if they occured in-between our weather recording intervals... More about our weather records

Advertising

Lancaster weather history for previous 24 hours

 ConditionsComfort  
Time TempWeatherWind HumidityBarometerVisibility
9:56 PM
Mon, Jul 27
74 °FClear.13 mph41%29.86 "Hg10 mi
8:56 PM76 °FSunny.10 mph39%29.85 "Hg10 mi
7:56 PM81 °FSunny.13 mph28%29.83 "Hg10 mi
6:56 PM86 °FSunny.23 mph14%29.82 "Hg10 mi
5:56 PM90 °FSunny.23 mph13%29.80 "Hg10 mi
4:56 PM91 °FSunny.23 mph22%29.80 "Hg10 mi
3:56 PM93 °FSunny.20 mph20%29.81 "Hg10 mi
2:56 PM94 °FSunny.17 mph19%29.82 "Hg10 mi
1:56 PM95 °FSunny.14 mph11%29.83 "Hg10 mi
12:56 PM92 °FSunny.12 mph13%29.85 "Hg10 mi
11:56 AM89 °FSunny.7 mph15%29.87 "Hg10 mi
10:56 AM88 °FSunny.14 mph17%29.88 "Hg10 mi
9:56 AM84 °FSunny.20 mph22%29.89 "Hg10 mi
8:56 AM80 °FSunny.21 mph27%29.89 "Hg10 mi
7:56 AM76 °FSunny.24 mph35%29.88 "Hg10 mi
6:56 AM72 °FClear.17 mph41%29.87 "Hg10 mi
5:56 AM71 °FClear.21 mph41%29.85 "Hg10 mi
4:56 AM70 °FClear.16 mph41%29.84 "Hg10 mi
3:56 AM71 °FClear.12 mph39%29.83 "Hg10 mi
2:56 AM70 °FClear.15 mph44%29.83 "Hg10 mi
1:56 AM72 °FClear.17 mph38%29.84 "Hg10 mi
12:56 AM72 °FClear.12 mph41%29.85 "Hg10 mi
11:56 PM
Sun, Jul 26
72 °FClear.21 mph44%29.85 "Hg10 mi
Weather by CustomWeather, © 2015

See weather overviewHow to use our weather pages